(261068) = 1997 UR1 = 2005 SA201

Discovered at Kitt Peak on 2005-09-30 by Spacewatch.

Orbit

Orbit type: Mars-crosser

Note: WebGL enabled browser required.

epoch2024-03-31.0
epoch JD2460400.5
perihelion date2023-05-20.23177
perihelion JD2460084.73177
argument of perihelion (°)130.13100
ascending node (°)21.34610
inclination (°)7.68835
eccentricity0.3649399
perihelion distance (AU)1.6247962
Tisserand w.r.t. Jupiter3.3
ΔV w.r.t. Earth (km/sec)8.3
semimajor axis (AU)2.5584918
mean anomaly (°)76.04952
mean daily motion (°/day)0.24083970
aphelion distance (AU)3.492
period (years)4.09
P-vector [x]-0.87612451
P-vector [y]0.39154551
P-vector [z]0.28124359
Q-vector [x]-0.47961899
Q-vector [y]-0.76687260
Q-vector [z]-0.42646458
absolute magnitude16.96
phase slope0.15
uncertainty0
referenceE2024-FA5
observations used527
oppositions12
arc length (days)9362
first opposition used1997
last opposition used2023
residual rms (arc-secs)0.69
perturbers coarse indicatorM-v
perturbers precise indicator003Ek
first observation date used1997-10-11.0
last observation date used2023-05-30.0
computer nameMPCLINUX
Minimum Orbit Intersection Distances (in AU)
for orbit epoch: 2460400.5, reference: E2024-FA5
Mercury1.2626
Venus0.90732
Earth0.64792
Mars0.04911
Jupiter1.54415
Saturn6.20755
Uranus16.6261
Neptune26.5124

Observations

538 total observations over interval: 1997 10 11.42063 – 2023 05 30.158690
These data are available for download (format description).

Date (UT) J2000 RA J2000 Dec Magn Location Ref
1997 10 11.42063 02 12 53.22 +14 57 29.5 20.8 V 691 – Steward Observatory, Kitt Peak-Spacewatch MPS 150787
1997 10 11.44269 02 12 52.00 +14 57 26.5 20.7 V 691 – Steward Observatory, Kitt Peak-Spacewatch MPS 150787
1997 10 11.46530 02 12 50.71 +14 57 24.3 20.5 V 691 – Steward Observatory, Kitt Peak-Spacewatch MPS 150787
1997 10 23.35668 02 00 51.81 +14 28 23.2 20.9 V 691 – Steward Observatory, Kitt Peak-Spacewatch MPS 126
1997 10 23.37867 02 00 50.39 +14 28 19.9 20.8 V 691 – Steward Observatory, Kitt Peak-Spacewatch MPS 126
1997 10 23.40024 02 00 48.97 +14 28 15.5 20.9 V 691 – Steward Observatory, Kitt Peak-Spacewatch MPS 126
1997 10 24.25183 01 59 54.39 +14 25 47.4 20.5 V 691 – Steward Observatory, Kitt Peak-Spacewatch MPS 126
1997 10 24.25872 01 59 53.90 +14 25 45.4 20.5 V 691 – Steward Observatory, Kitt Peak-Spacewatch MPS 126
1997 10 24.27389 01 59 52.93 +14 25 43.3 20.4 V 691 – Steward Observatory, Kitt Peak-Spacewatch MPS 126
2001 10 14.25470 01 24 57.76 +08 54 33.5 21.3 V 291 – LPL/Spacewatch II MPS 150787
2001 10 14.27755 01 24 56.35 +08 54 28.7 20.9 V 291 – LPL/Spacewatch II MPS 150787
2001 10 14.29861 01 24 55.03 +08 54 24.0 21.3 V 291 – LPL/Spacewatch II MPS 150787
2005 09 30.23369 01 00 36.22 +04 26 20.7 21.2 V 691 – Steward Observatory, Kitt Peak-Spacewatch MPS 144382
2005 09 30.25117 01 00 35.24 +04 26 16.5 21.3 V 691 – Steward Observatory, Kitt Peak-Spacewatch MPS 144382
2005 09 30.27203 01 00 34.03 +04 26 11.2 21.6 V 691 – Steward Observatory, Kitt Peak-Spacewatch MPS 144382
2005 10 01.24229 00 59 40.02 +04 22 22.3 21.7 V G96 – Mt. Lemmon Survey MPS 144382
2005 10 01.24904 00 59 39.66 +04 22 21.1 21.1 V G96 – Mt. Lemmon Survey MPS 144382
2005 10 01.25583 00 59 39.26 +04 22 19.3 20.8 V G96 – Mt. Lemmon Survey MPS 144382
2005 10 01.26256 00 59 38.86 +04 22 17.9 21.0 V G96 – Mt. Lemmon Survey MPS 144382
2005 10 05.23427 00 55 53.32 +04 06 25.7 21.1 V 691 – Steward Observatory, Kitt Peak-Spacewatch MPS 144382
2005 10 05.25151 00 55 52.33 +04 06 21.8 20.8 V 691 – Steward Observatory, Kitt Peak-Spacewatch MPS 144382
2005 10 05.26884 00 55 51.34 +04 06 17.5 21.1 V 691 – Steward Observatory, Kitt Peak-Spacewatch MPS 144382
2005 10 10.19719 00 51 06.16 +03 46 24.2 21.8 V 691 – Steward Observatory, Kitt Peak-Spacewatch MPS 144383
2005 10 10.21450 00 51 05.14 +03 46 20.8 21.8 V 691 – Steward Observatory, Kitt Peak-Spacewatch MPS 144383
2005 10 10.23180 00 51 04.14 +03 46 15.9 21.2 V 691 – Steward Observatory, Kitt Peak-Spacewatch MPS 144383
2005 10 12.20294 00 49 09.84 +03 38 23.6 22.2 V 291 – LPL/Spacewatch II MPS 146209
2005 10 12.20872 00 49 09.52 +03 38 22.3 22.1 V 291 – LPL/Spacewatch II MPS 146209
2005 10 12.21467 00 49 09.12 +03 38 20.5 22.3 V 291 – LPL/Spacewatch II MPS 146209
2005 10 12.25087 00 49 06.99 +03 38 12.2 22.3 V 291 – LPL/Spacewatch II MPS 146209
2005 10 12.25526 00 49 06.70 +03 38 11.5 22.3 V 291 – LPL/Spacewatch II MPS 146209
2005 10 12.25904 00 49 06.48 +03 38 10.1 21.9 V 291 – LPL/Spacewatch II MPS 146209
2005 10 12.26663 00 49 06.05 +03 38 08.5 22.2 V 291 – LPL/Spacewatch II MPS 146209
2005 10 12.27366 00 49 05.62 +03 38 06.6 21.5 V 291 – LPL/Spacewatch II MPS 146209
2005 10 12.28063 00 49 05.24 +03 38 05.1 21.7 V 291 – LPL/Spacewatch II MPS 146209
2005 10 31.22795 00 32 12.26 +02 32 40.2 21.3 V G96 – Mt. Lemmon Survey MPS 147592
2005 10 31.23426 00 32 11.97 +02 32 39.3 20.9 V G96 – Mt. Lemmon Survey MPS 147592
2005 10 31.24060 00 32 11.72 +02 32 38.5 21.4 V G96 – Mt. Lemmon Survey MPS 147592
2005 10 31.24688 00 32 11.36 +02 32 37.1 20.9 V G96 – Mt. Lemmon Survey MPS 147592
2005 11 02.25448 00 30 41.03 +02 27 30.5 20.3 R 695 – Kitt Peak MPS 150787
2005 11 02.27077 00 30 40.32 +02 27 28.2   695 – Kitt Peak MPS 150787
2005 11 03.28123 00 29 56.58 +02 25 04.0   695 – Kitt Peak MPS 150787
2007 02 23.44493 14 37 44.57 -12 38 49.1 19.0   704 – Lincoln Laboratory ETS, New Mexico MPS 201527
2007 02 23.46814 14 37 45.57 -12 39 01.6 19.8   704 – Lincoln Laboratory ETS, New Mexico MPS 201527
2007 02 23.49138 14 37 46.60 -12 39 14.1 19.9   704 – Lincoln Laboratory ETS, New Mexico MPS 201527
2007 02 23.49273 14 37 46.77 -12 39 15.8 19.9 V 703 – Catalina Sky Survey MPS 201527
2007 02 23.49764 14 37 46.88 -12 39 17.3 19.4 V 703 – Catalina Sky Survey MPS 201527
2007 02 23.50259 14 37 47.02 -12 39 20.9 19.4 V 703 – Catalina Sky Survey MPS 201527
2007 02 23.50757 14 37 47.31 -12 39 23.0 19.3 V 703 – Catalina Sky Survey MPS 201527
2007 03 11.44335 14 45 22.35 -14 43 56.8 19.3 V G96 – Mt. Lemmon Survey MPS 203086
2007 03 11.44941 14 45 22.42 -14 43 59.5 19.2 V G96 – Mt. Lemmon Survey MPS 203086
2007 03 11.45541 14 45 22.46 -14 44 02.0 19.4 V G96 – Mt. Lemmon Survey MPS 203086
2007 03 17.38451 14 45 29.79 -15 22 33.6 19.2   704 – Lincoln Laboratory ETS, New Mexico MPS 204608
2007 03 17.40650 14 45 29.64 -15 22 44.1 19.4   704 – Lincoln Laboratory ETS, New Mexico MPS 204608
2007 03 17.42835 14 45 29.46 -15 22 51.1 19.4   704 – Lincoln Laboratory ETS, New Mexico MPS 204608
2007 03 31.40043 14 39 49.85 -16 34 53.5 18.6 R 644 – Palomar Mountain/NEAT MPS 205958
2007 03 31.42187 14 39 48.91 -16 34 58.6 18.6 R 644 – Palomar Mountain/NEAT MPS 205958
2007 03 31.44330 14 39 47.96 -16 35 03.7 18.4 R 644 – Palomar Mountain/NEAT MPS 205958
2007 04 11.28903 14 30 32.86 -17 11 07.3 19.5 V 691 – Steward Observatory, Kitt Peak-Spacewatch MPS 206186
2007 04 11.30669 14 30 31.75 -17 11 09.9 19.5 V 691 – Steward Observatory, Kitt Peak-Spacewatch MPS 206186
2007 04 11.32435 14 30 30.60 -17 11 12.4 20.4 V 691 – Steward Observatory, Kitt Peak-Spacewatch MPS 206186
2007 04 15.36177 14 26 18.89 -17 20 02.7 18.9   704 – Lincoln Laboratory ETS, New Mexico MPS 206930
2007 04 15.37117 14 26 18.21 -17 20 02.7 19.0   704 – Lincoln Laboratory ETS, New Mexico MPS 206930
2007 04 15.38056 14 26 17.57 -17 20 04.1 19.0   704 – Lincoln Laboratory ETS, New Mexico MPS 206930
2007 04 15.38999 14 26 16.94 -17 20 05.3 19.1   704 – Lincoln Laboratory ETS, New Mexico MPS 206930
2007 04 15.39950 14 26 16.28 -17 20 06.6 19.1   704 – Lincoln Laboratory ETS, New Mexico MPS 206930
2007 04 18.35298 14 23 03.31 -17 25 03.9 18.6   704 – Lincoln Laboratory ETS, New Mexico MPS 206930
2007 04 18.37130 14 23 02.01 -17 25 05.5 19.0   704 – Lincoln Laboratory ETS, New Mexico MPS 206930
2007 04 18.38046 14 23 01.36 -17 25 06.2 18.8   704 – Lincoln Laboratory ETS, New Mexico MPS 206930
2007 04 18.38962 14 23 00.69 -17 25 06.5 18.9   704 – Lincoln Laboratory ETS, New Mexico MPS 206930
2007 04 22.32231 14 18 37.65 -17 29 56.5 18.1   704 – Lincoln Laboratory ETS, New Mexico MPS 208091
2007 04 22.33167 14 18 37.00 -17 29 57.2 18.4   704 – Lincoln Laboratory ETS, New Mexico MPS 208091
2007 04 22.34095 14 18 36.35 -17 29 57.7 18.5   704 – Lincoln Laboratory ETS, New Mexico MPS 208091
2007 04 22.35032 14 18 35.68 -17 29 57.5 18.4   704 – Lincoln Laboratory ETS, New Mexico MPS 208091
2007 04 22.35966 14 18 35.03 -17 29 58.4 18.6   704 – Lincoln Laboratory ETS, New Mexico MPS 208091
2007 05 09.30160 14 01 01.97 -17 35 07.8 18.3 R 699 – Lowell Observatory-LONEOS MPS 208950
2007 05 09.31806 14 01 01.00 -17 35 07.8   699 – Lowell Observatory-LONEOS MPS 208950
2007 05 09.33452 14 01 00.06 -17 35 07.7   699 – Lowell Observatory-LONEOS MPS 208950
2007 05 09.35098 14 00 59.28 -17 35 06.4   699 – Lowell Observatory-LONEOS MPS 208950
2010 12 02.44902 11 01 05.16 +16 16 43.1 19.8 V 691 – Steward Observatory, Kitt Peak-Spacewatch MPS 358895
2010 12 02.46846 11 01 07.67 +16 16 30.9 19.9 V 691 – Steward Observatory, Kitt Peak-Spacewatch MPS 358895
2010 12 02.48786 11 01 10.17 +16 16 18.3 20.1 V 691 – Steward Observatory, Kitt Peak-Spacewatch MPS 358895
2010 12 03.46170 11 03 17.57 +16 05 48.8 20.2 V 691 – Steward Observatory, Kitt Peak-Spacewatch MPS 358895
2010 12 03.48035 11 03 19.86 +16 05 37.4 19.9 V 691 – Steward Observatory, Kitt Peak-Spacewatch MPS 358895
2010 12 03.50190 11 03 22.65 +16 05 23.9 20.6 V 691 – Steward Observatory, Kitt Peak-Spacewatch MPS 358895
2011 01 02.43828 12 01 47.71 +10 56 33.6 20.1 V 703 – Catalina Sky Survey MPS 363349
2011 01 02.44581 12 01 48.46 +10 56 28.3 19.9 V 703 – Catalina Sky Survey MPS 363349
2011 01 02.45339 12 01 49.15 +10 56 24.3 19.6 V 703 – Catalina Sky Survey MPS 363349
2011 01 02.46105 12 01 49.87 +10 56 21.4 20.1 V 703 – Catalina Sky Survey MPS 363349
2011 01 30.39947 12 38 01.71 +07 11 14.4 19.2 V 703 – Catalina Sky Survey MPS 369403
2011 01 30.40466 12 38 01.96 +07 11 12.5 19.1 V 703 – Catalina Sky Survey MPS 369403
